Flag Weather past 2 weeks in Kongsvinger, Norway

Now
27 °F

Ice fog.


Feels Like: 27 °F
Forecast: 29 / 33 °F
Wind: No wind

Location: Oslo Gardermoen Airport

Current Time: Nov 27, 2014 at 4:22:24 AM

Latest Report: Nov 27, 2014 at 3:50 AM


Visibility: 1 mi

Pressure: 30.21 "Hg

Humidity: 100%

Dew point: 27 °F

Location of KongsvingerLocation

Historic Weather in Kongsvinger — Graph

°F

Kongsvinger temperature yesterday

Maximum temperature yesterday: 32 °F (at 2:50 AM)
Minimum temperature yesterday: 25 °F (at 6:20 PM)
Average temperature yesterday: 29 °F

Past Weeks' High & Low Weather Summary

 TemperatureHumidityPressure
High43 °F (Nov 24, 8:20 AM)100% (Nov 13, 3:50 PM)30.48 "Hg (Nov 13, 3:50 PM)
Low25 °F (Nov 26, 6:20 PM)75% (Nov 17, 11:20 AM)29.62 "Hg (Nov 24, 1:20 PM)
Average36 °F93%30.21 "Hg
* Reported Nov 12 2:20 AM — Nov 27 2:50 AM, Kongsvinger, Weather by CustomWeather, © 2014

Note: Actual official high and low records may vary slightly from our data, if they occured in-between our weather recording intervals... More about our weather records

Advertising

Kongsvinger weather history for previous 24 hours

 ConditionsComfort  
Time TempWeatherWind HumidityBarometerVisibility
2:50 AM
Nov 27
27 °FIce fog.1 mph100%30.21 "Hg1 mi
2:20 AM27 °FIce fog.3 mph100%30.21 "Hg1 mi
1:50 AM27 °FIce fog.2 mph100%30.21 "Hg1 mi
1:20 AM27 °FIce fog.2 mph100%30.21 "Hg1 mi
12:50 AM27 °FIce fog.2 mph100%30.24 "Hg1 mi
12:20 AM27 °FIce fog.1 mph100%30.24 "Hg1 mi
11:50 PM
Nov 26
27 °FIce fog.1 mph100%30.24 "Hg1 mi
11:20 PM27 °FIce fog.No wind100%30.24 "Hg1 mi
10:50 PM27 °FIce fog.3 mph100%30.24 "Hg1 mi
10:20 PM27 °FIce fog.2 mph100%30.24 "Hg1 mi
9:50 PM27 °FIce fog.1 mph100%30.24 "Hg1 mi
9:20 PM27 °FIce fog.No wind100%30.24 "Hg2 mi
8:50 PM27 °FIce fog.No wind93%30.24 "Hg3 mi
8:20 PM27 °FPassing clouds.3 mph93%30.24 "Hg4 mi
7:50 PM25 °FIce fog.3 mph100%30.24 "Hg5 mi
7:20 PM25 °FFog.3 mph100%30.24 "Hg5 mi
6:50 PM27 °FPassing clouds.2 mph93%30.27 "HgN/A
6:20 PM25 °FFog.2 mph100%30.27 "HgN/A
5:50 PM27 °FLight fog.2 mph100%30.27 "HgN/A
5:20 PM27 °FPassing clouds.2 mph93%30.27 "HgN/A
4:50 PM28 °FPassing clouds.2 mph93%30.27 "HgN/A
4:20 PM28 °FPassing clouds.2 mph93%30.27 "HgN/A
3:50 PM28 °FPassing clouds.2 mph100%30.27 "HgN/A
3:20 PM28 °FPartly sunny.2 mph100%30.27 "HgN/A
2:50 PM30 °FScattered clouds.2 mph93%30.27 "HgN/A
2:20 PM30 °FScattered clouds.1 mph93%30.27 "HgN/A
1:50 PM30 °FScattered clouds.2 mph100%30.30 "HgN/A
1:20 PM30 °FScattered clouds.2 mph93%30.30 "HgN/A
12:50 PM28 °FSleet. Scattered clouds.3 mph100%30.30 "HgN/A
12:20 PM28 °FScattered clouds.2 mph100%30.30 "HgN/A
11:50 AM28 °FScattered clouds.No wind100%30.30 "HgN/A
11:20 AM28 °FScattered clouds.3 mph100%30.30 "HgN/A
10:50 AM28 °FPartly sunny.7 mph100%30.30 "Hg5 mi
10:20 AM28 °FPartly sunny.8 mph100%30.30 "Hg4 mi
9:50 AM30 °FIce fog.8 mph100%30.30 "Hg3 mi
9:20 AM28 °FIce fog.No wind100%30.30 "Hg2 mi
8:50 AM30 °FChilly.No wind93%30.30 "Hg2 mi
8:20 AM30 °FChilly.No wind100%30.30 "Hg1 mi
7:50 AM30 °FIce fog.No wind100%30.30 "Hg1 mi
7:20 AM30 °FIce fog.No wind100%30.30 "Hg2 mi
6:50 AM30 °FIce fog.No wind100%30.30 "Hg1 mi
6:20 AM30 °FIce fog.No wind100%30.27 "Hg1 mi
5:50 AM30 °FIce fog.No wind100%30.27 "Hg1 mi
5:20 AM30 °FIce fog.No wind100%30.27 "Hg1 mi
4:50 AM30 °FIce fog.No wind100%30.27 "Hg1 mi
4:20 AM30 °FIce fog.No wind100%30.27 "Hg1 mi
Weather by CustomWeather, © 2014

See weather overviewHow to use our weather pages